[[{"header":{"parameterUnit":"m.s-1","parameterCategory":1,"la1":30.2991,"la2":30.254,"lo1":-89.0895,"lo2":-89.0444,"dy":0.0017,"dx":0.0017,"nx":28,"ny":28,"refTime":"2024-07-12T09:00:00:Z","depth":0,"parameterNumber":2,"parameterNumberName":"U-component_of_WINDS"},"data":[0,0,0,0,0,0,0,0,0,0,0,0,0,0,0,0,0,0,0,0,0,0,0,0,0,0,0,0,0,0,0,0,0,0,0,0,0,0,0,0,0,0,0,0,0,0,0,0,0,0,0,0,0,0,0,0,0,0,0.9916,0.9917,0,1.0017,1.0018,1.0019,1.005,1.0049,1.0049,1.0048,1.0155,1.0158,1.0161,0,0,0,0,0,0,0,0,0,0,0,0,0,0.9755,0.9758,0.9916,0.9918,0.9919,1.0016,1.0018,1.0019,1.005,1.0049,1.0048,1.0048,1.0154,1.0158,1.0162,0,0,0,0,0,0,0,0,0,0,0,0,0,0.9837,0.9759,0.9916,0.9946,0.9949,1.0016,1.0018,1.002,1.005,1.0049,1.0048,1.0048,1.0152,1.0157,1.0162,1.0208,0,0,1.0177,1.0179,0,0,0,0,0,0,0,0,0.9833,0.9843,0.994,0.9944,0.9948,1.002,1.0,1.0083,1.005,1.0012,1.0048,1.0047,1.0111,1.0119,1.014,1.0213,1.0218,1.0178,1.0181,1.0183,1.0184,0,0,0,0,0,0,0,0.9827,0.9839,0.9956,0.9941,0.9946,0.9955,0.9966,1.0016,1.0064,1.0015,1.0017,1.0029,1.0113,1.0135,1.0142,1.0219,1.0178,1.0182,1.0185,1.0187,1.0336,1.0337,0,0,0,0,0,0,0.9816,0.9834,0.9953,0.9959,0.9887,0.9959,0.9971,0.9998,1.0064,1.0073,1.0029,1.003,1.0127,1.0137,1.0146,1.0205,1.0183,1.0187,1.019,1.0335,1.0337,1.0338,0,0,0,0,0,0,0.9812,0.9826,0.9949,0.9897,0.9914,0.9962,0.9992,1.0,1.0022,1.0075,1.0084,1.0043,1.0126,1.0139,1.0192,1.0209,1.019,1.0194,1.0334,1.0336,1.0337,1.0323,0,0,0,0,0,0,0.9807,0.9824,0.9841,0.9897,0.9916,0.9992,0.9993,1.0002,1.003,1.0032,1.009,1.0099,1.0127,1.0185,1.0197,1.0216,1.0198,1.0333,1.0335,1.0337,1.0322,1.0324,1.0325,0,0,0,0,0,0.9801,0.9834,0.9842,0.9856,0.9938,0.9993,1.0004,1.0035,1.0031,1.0049,1.0083,1.0097,1.0205,1.019,1.0204,1.0225,1.0332,1.0334,1.0337,1.0321,1.0323,1.0325,0,0,0,0,0,0,0.978,0.9842,0.9852,0.9903,0.9942,0.9998,1.0022,1.0036,1.0078,1.0078,1.0115,1.0128,1.0179,1.0207,1.0189,1.0273,1.0269,1.0274,1.0253,1.0255,1.0257,1.0249,1.0202,0,0,0,0,0,0.9781,0.9819,0.9871,0.9912,0.9931,0.9973,0.9998,1.0018,1.0061,1.0078,1.0116,1.0158,1.0202,1.023,1.0273,1.0326,1.034,1.0347,1.0349,1.0349,1.0354,1.0385,1.0389,1.0345,1.0345,1.0345,0,0,0.9784,0.9822,0.9844,0.9908,0.9941,0.9981,0.9987,1.0028,1.0059,1.0085,1.0137,1.0166,1.0216,1.0269,1.0295,1.0295,1.0369,1.0352,1.0353,1.0357,1.0388,1.0392,1.0396,1.0347,1.0346,1.0346,0,0,0.981,0.9842,0.988,0.9912,0.9962,0.9989,0.9998,1.0052,1.0072,1.0125,1.0145,1.0183,1.0257,1.0292,1.0319,1.0358,1.0373,1.0371,1.038,1.041,1.0413,1.0416,1.0431,1.0436,1.0375,1.0375,1.0375,0,0.9808,0.9867,0.9898,0.9938,0.9967,0.9991,1.003,1.006,1.0122,1.0141,1.014,1.0233,1.0269,1.0331,1.034,1.0361,1.0374,1.0365,1.041,1.0413,1.0417,1.0432,1.0437,1.0375,1.0375,1.0375,1.0375,0,0.9863,0.9904,0.9928,0.9986,1.0017,1.0057,1.0094,1.0122,1.014,1.0168,1.0222,1.0265,1.0317,1.0334,1.0352,1.0399,1.0397,1.0402,1.0399,1.042,1.0435,1.0441,1.0374,1.0374,1.0374,1.0375,0,0,0.9879,0.9952,0.9961,0.9987,1.0043,1.0077,1.0118,1.0168,1.0192,1.0233,1.027,1.0332,1.0337,1.0368,1.039,1.0416,1.0446,1.0418,1.042,1.0423,1.0502,1.0499,1.0505,1.0455,1.0457,1.0457,1.0498,0,0.9913,0.9986,1.0015,1.0075,1.0114,1.0138,1.0174,1.0213,1.0241,1.0279,1.031,1.0354,1.0356,1.0375,1.0402,1.0437,1.0463,1.0434,1.0491,1.0493,1.0479,1.0512,1.0509,1.0546,1.0504,1.0505,1.0506,0,0.9962,1.0003,1.0067,1.0119,1.0136,1.0168,1.0217,1.0253,1.0298,1.0316,1.0351,1.0371,1.0417,1.041,1.0475,1.0454,1.048,1.05,1.0502,1.051,1.0501,1.0522,1.0558,1.0564,1.0515,1.0514,1.0514,0,0.9969,1.004,1.0087,1.0109,1.0171,1.0193,1.022,1.0264,1.0293,1.0336,1.0355,1.0403,1.0429,1.0467,1.05,1.0492,1.0562,1.0558,1.058,1.0579,1.0594,1.0593,1.0636,1.0608,1.0608,1.0608,1.0608,0,1.0004,1.0043,1.0091,1.0121,1.0165,1.0198,1.0242,1.027,1.031,1.0346,1.0369,1.0403,1.0445,1.0485,1.0511,1.0561,1.0573,1.059,1.0597,1.0588,1.0586,1.0606,1.0605,1.061,1.0609,1.0609,1.0609,0,1.0019,1.0053,1.0107,1.016,1.0175,1.0205,1.0252,1.0282,1.031,1.0356,1.0369,1.0414,1.0462,1.0498,1.0561,1.0579,1.0632,1.0639,1.0617,1.0621,1.0641,1.0639,1.0699,1.0709,1.0673,1.0674,1.0674,0,1.004,1.007,1.0127,1.0152,1.0179,1.022,1.0249,1.0282,1.0312,1.0366,1.039,1.0439,1.0481,1.0557,1.0596,1.0644,1.0653,1.0671,1.0661,1.0651,1.0655,1.0653,1.0657,1.0672,1.0673,1.0673,1.0673,0,1.0074,1.009,1.013,1.0176,1.021,1.0248,1.0287,1.0307,1.0348,1.038,1.0429,1.0461,1.0524,1.0574,1.0626,1.0655,1.0672,1.0675,1.0683,1.0676,1.0662,1.0671,1.0622,1.0674,1.0674,1.0674,1.0674,1.0674,1.0094,1.0122,1.0166,1.0211,1.0243,1.0279,1.031,1.0342,1.0383,1.0436,1.0454,1.0505,1.055,1.0622,1.0651,1.0693,1.0693,1.0704,1.0707,1.071,1.071,1.0654,1.0702,1.0702,1.0702,1.0702,1.0702,0,1.0131,1.016,1.02,1.0253,1.0288,1.0299,1.0343,1.0372,1.0416,1.0456,1.0496,1.0552,1.06,1.0643,1.0693,1.0718,1.0727,1.073,1.0729,1.0736,1.0706,1.0694,1.0722,1.0722,1.0722,1.0722,1.0722,1.0722,1.0154,1.0202,1.0222,1.0288,1.0317,1.0366,1.039,1.0424,1.0456,1.0518,1.0557,1.0584,1.0626,1.0679,1.0724,1.0736,1.0754,1.0755,1.0769,1.074,1.0738,1.0735,1.0725,1.0759,1.0759,1.0796,1.0796,1.0796]},{"header":{"parameterUnit":"m.s-1","parameterCategory":1,"la1":30.2991,"la2":30.254,"lo1":-89.0895,"lo2":-89.0444,"dy":0.0017,"dx":0.0017,"nx":28,"ny":28,"refTime":"2024-07-12T09:00:00:Z","depth":0,"parameterNumber":3,"parameterNumberName":"V-component_of_WINDS"},"data":[0,0,0,0,0,0,0,0,0,0,0,0,0,0,0,0,0,0,0,0,0,0,0,0,0,0,0,0,0,0,0,0,0,0,0,0,0,0,0,0,0,0,0,0,0,0,0,0,0,0,0,0,0,0,0,0,0,0,1.1342,1.1342,0,1.1293,1.1292,1.1292,1.1251,1.1251,1.125,1.125,1.1197,1.1196,1.1195,0,0,0,0,0,0,0,0,0,0,0,0,0,1.1397,1.1396,1.1342,1.1342,1.1341,1.1293,1.1292,1.1292,1.1251,1.1251,1.125,1.125,1.1198,1.1197,1.1195,0,0,0,0,0,0,0,0,0,0,0,0,0,1.1363,1.1396,1.1343,1.1315,1.1312,1.1293,1.1292,1.1292,1.1251,1.1251,1.125,1.1249,1.1198,1.1197,1.1195,1.1199,0,0,1.1191,1.119,0,0,0,0,0,0,0,0,1.1365,1.1361,1.132,1.1317,1.1314,1.1278,1.1292,1.126,1.1251,1.1274,1.125,1.1249,1.1224,1.1221,1.1213,1.1196,1.1194,1.119,1.119,1.1189,1.1188,0,0,0,0,0,0,0,1.1368,1.1363,1.1323,1.1319,1.1316,1.1304,1.1298,1.1286,1.1254,1.1272,1.1269,1.1264,1.1223,1.1214,1.1211,1.1193,1.119,1.1189,1.1188,1.1188,1.1172,1.1173,0,0,0,0,0,0,1.1375,1.1365,1.1324,1.1321,1.1338,1.1303,1.1297,1.129,1.1254,1.1247,1.1265,1.1262,1.1217,1.1213,1.1209,1.1208,1.1189,1.1187,1.1187,1.1172,1.1172,1.1173,0,0,0,0,0,0,1.1376,1.1371,1.1326,1.1342,1.1336,1.1303,1.1295,1.1289,1.1281,1.1248,1.1241,1.1262,1.1217,1.1211,1.1201,1.1206,1.1187,1.1185,1.1171,1.1172,1.1172,1.1207,0,0,0,0,0,0,1.1378,1.1372,1.1375,1.1343,1.1335,1.132,1.1296,1.1289,1.1279,1.1275,1.1244,1.1238,1.1216,1.1203,1.1199,1.1203,1.1184,1.117,1.1171,1.1172,1.1206,1.1209,1.1212,0,0,0,0,0,1.138,1.1387,1.1375,1.137,1.1338,1.1321,1.1316,1.1291,1.1279,1.128,1.1258,1.1239,1.1206,1.1202,1.1198,1.1201,1.117,1.1171,1.1172,1.1204,1.1209,1.1212,0,0,0,0,0,0,1.142,1.1382,1.1369,1.1366,1.1347,1.1314,1.1315,1.1297,1.128,1.1277,1.1245,1.1239,1.1231,1.1215,1.1212,1.12,1.1185,1.1185,1.1211,1.1215,1.1218,1.1222,1.1183,0,0,0,0,0,1.1429,1.1419,1.1386,1.1387,1.1378,1.1348,1.134,1.1321,1.13,1.1292,1.1269,1.1248,1.1232,1.1223,1.1207,1.1203,1.1194,1.1203,1.1206,1.1209,1.1209,1.1202,1.1205,1.1176,1.1176,1.1176,0,0,1.1446,1.1424,1.142,1.1394,1.1377,1.1366,1.1341,1.1332,1.1322,1.129,1.1278,1.126,1.1235,1.1226,1.1222,1.1213,1.1215,1.1211,1.1213,1.1212,1.1204,1.1207,1.1209,1.1177,1.1177,1.1177,0,0,1.1472,1.1456,1.1453,1.1436,1.141,1.139,1.1389,1.1358,1.1345,1.1332,1.1306,1.1294,1.1269,1.1251,1.1238,1.1253,1.1234,1.1249,1.1266,1.126,1.1262,1.1264,1.1267,1.1268,1.1249,1.125,1.125,0,1.1497,1.148,1.1453,1.1444,1.1432,1.1402,1.1397,1.1381,1.1352,1.1343,1.1334,1.1299,1.128,1.1265,1.1268,1.126,1.1256,1.1252,1.1264,1.1266,1.1267,1.1269,1.127,1.1251,1.1251,1.1251,1.1251,0,1.151,1.1499,1.15,1.1471,1.1459,1.1452,1.1422,1.1413,1.1395,1.1375,1.136,1.1336,1.1313,1.1308,1.1291,1.1289,1.1284,1.127,1.1254,1.1272,1.1273,1.1274,1.1254,1.1253,1.1253,1.1252,0,0,1.1561,1.1516,1.1516,1.1502,1.147,1.146,1.145,1.1428,1.1419,1.1399,1.1388,1.1366,1.1351,1.1337,1.1317,1.1311,1.1321,1.1297,1.1296,1.1301,1.1315,1.1325,1.1326,1.1308,1.1308,1.1308,1.1316,0,1.158,1.1562,1.1536,1.1526,1.1513,1.1483,1.1474,1.1452,1.1432,1.1417,1.1395,1.1378,1.1362,1.1352,1.1346,1.1322,1.1323,1.1321,1.1296,1.1295,1.1302,1.1328,1.1339,1.1347,1.1317,1.1317,1.1317,0,1.16,1.1581,1.157,1.1536,1.1529,1.1522,1.1497,1.1485,1.1458,1.1443,1.1426,1.1404,1.1389,1.1375,1.1353,1.1352,1.134,1.1326,1.1326,1.1322,1.1307,1.1322,1.135,1.1351,1.1318,1.1318,1.1318,0,1.1635,1.1606,1.1595,1.1583,1.1545,1.1539,1.1523,1.1496,1.1483,1.1461,1.1452,1.1428,1.1415,1.1397,1.1368,1.1361,1.1348,1.1332,1.1333,1.1334,1.1332,1.1332,1.1356,1.1326,1.1326,1.1326,1.1326,0,1.1658,1.1651,1.1609,1.1602,1.1593,1.1562,1.1554,1.1534,1.151,1.1496,1.1469,1.1456,1.142,1.1402,1.1379,1.1363,1.1358,1.1344,1.1338,1.1346,1.1347,1.1337,1.1335,1.1327,1.1327,1.1327,1.1327,0,1.1695,1.1667,1.1652,1.1616,1.1606,1.1601,1.1569,1.156,1.1537,1.1521,1.1515,1.148,1.1458,1.1427,1.1396,1.138,1.1366,1.1357,1.1375,1.1371,1.1374,1.1373,1.1391,1.1391,1.1363,1.1363,1.1364,0,1.171,1.1704,1.1667,1.1657,1.1641,1.1624,1.1611,1.1579,1.1566,1.1533,1.1527,1.1503,1.1482,1.1448,1.1418,1.1393,1.1382,1.139,1.1378,1.1386,1.138,1.138,1.1378,1.1393,1.1393,1.1394,1.1394,0,1.174,1.1726,1.1708,1.1684,1.1668,1.1648,1.1626,1.1619,1.1582,1.1568,1.1545,1.1529,1.1496,1.1472,1.1442,1.1423,1.1401,1.1398,1.1396,1.1404,1.1414,1.1406,1.1381,1.1397,1.1397,1.1397,1.1397,1.1397,1.1765,1.1757,1.1729,1.1709,1.1689,1.1669,1.1658,1.1634,1.1614,1.1586,1.1568,1.1545,1.1515,1.1474,1.1455,1.1436,1.1427,1.1426,1.1425,1.1425,1.1427,1.1418,1.143,1.143,1.143,1.143,1.143,0,1.1791,1.1771,1.1753,1.1723,1.1706,1.1689,1.1663,1.165,1.1631,1.1605,1.1585,1.1557,1.1532,1.15,1.1473,1.1463,1.1452,1.1457,1.1456,1.1452,1.1437,1.144,1.1466,1.1466,1.1466,1.1466,1.1466,1.1466,1.1802,1.1787,1.177,1.1744,1.1723,1.1702,1.1688,1.1668,1.1648,1.1619,1.1598,1.1578,1.1548,1.1518,1.1494,1.1485,1.1475,1.1482,1.147,1.1456,1.1453,1.145,1.1453,1.1481,1.1481,1.1486,1.1486,1.1486]}]]